WX2NJ-13 Weather Reports


Display with metric or nautical units.
time (UTC)temp
F
wind
direction
speed
MPH
gust
MPH
rain 1hr
in
rain 24hr
in
rain mn
in
humidity
%
barometer
mb
20260506182803 69 181 2.0 4.0 0.00 0.04 0.00 66 1008.9
20260506182301 69 195 3.0 3.0 0.00 0.04 0.00 66 1008.9
20260506181802 69 155 5.0 4.0 0.00 0.04 0.00 66 1008.9
20260506181304 69 300 4.0 1.0 0.00 0.04 0.00 66 1008.9
20260506180802 70 193 3.0 3.0 0.00 0.04 0.00 65 1009.0
20260506180304 70 180 3.0 5.0 0.00 0.04 0.00 65 1009.0
20260506175805 70 177 3.0 3.0 0.00 0.04 0.00 65 1009.1
20260506175306 70 155 4.0 4.0 0.00 0.04 0.00 65 1009.2
20260506174805 70 179 3.0 6.0 0.00 0.04 0.00 65 1009.4
20260506174303 70 181 4.0 6.0 0.00 0.04 0.00 66 1009.4
20260506173802 70 172 5.0 4.0 0.00 0.04 0.00 66 1009.4
20260506173303 70 165 3.0 3.0 0.00 0.04 0.00 67 1009.3
20260506172804 69 191 4.0 4.0 0.00 0.04 0.00 68 1009.5
20260506172306 69 198 3.0 4.0 0.00 0.04 0.00 69 1009.4
20260506171804 69 152 3.0 2.0 0.00 0.04 0.00 70 1009.5
20260506171306 68 166 2.0 3.0 0.00 0.04 0.00 71 1009.5
20260506170805 68 203 4.0 2.0 0.00 0.04 0.00 70 1009.7
20260506170306 68 65 2.0 1.0 0.00 0.04 0.00 69 1009.8
20260506165807 68 156 3.0 5.0 0.00 0.04 0.00 69 1009.9
20260506165307 68 158 2.0 2.0 0.00 0.04 0.00 69 1009.9
20260506164807 68 165 3.0 5.0 0.00 0.04 0.00 69 1010.2
20260506164308 68 174 3.0 1.0 0.00 0.04 0.00 69 1010.4
20260506163807 68 162 3.0 3.0 0.00 0.04 0.00 69 1010.6
20260506163308 68 170 3.0 7.0 0.00 0.04 0.00 69 1010.7
20260506162810 68 165 3.0 4.0 0.00 0.04 0.00 69 1010.8
20260506162308 68 181 2.0 3.0 0.00 0.04 0.00 69 1010.8
20260506161809 68 143 3.0 3.0 0.00 0.04 0.00 69 1010.8
20260506161311 68 170 3.0 3.0 0.00 0.04 0.00 68 1010.8
20260506160809 68 181 3.0 2.0 0.00 0.04 0.00 68 1010.9
20260506160310 68 59 3.0 4.0 0.00 0.04 0.00 68 1010.9
20260506155812 68 201 3.0 1.0 0.00 0.04 0.00 68 1010.8
20260506155310 68 186 2.0 4.0 0.00 0.04 0.00 68 1010.9
20260506154812 68 186 3.0 1.0 0.00 0.04 0.00 67 1010.8
20260506154313 68 125 2.0 3.0 0.00 0.04 0.00 67 1010.9
20260506153811 68 167 4.0 3.0 0.00 0.04 0.00 67 1010.9
20260506153313 68 181 3.0 3.0 0.00 0.04 0.00 67 1010.9
20260506152814 68 191 4.0 3.0 0.00 0.04 0.00 67 1010.9
20260506152313 68 170 3.0 2.0 0.00 0.04 0.00 67 1011.0
20260506151814 68 194 3.0 2.0 0.00 0.04 0.00 66 1011.0
20260506151315 68 162 2.0 4.0 0.00 0.04 0.00 66 1011.0
20260506150814 68 159 4.0 4.0 0.00 0.04 0.00 65 1011.1
20260506150315 69 160 2.0 1.0 0.00 0.04 0.00 65 1011.1
20260506145816 69 183 2.0 4.0 0.00 0.04 0.00 64 1011.1
20260506145315 69 188 3.0 3.0 0.00 0.04 0.00 64 1011.1
20260506144816 70 166 3.0 3.0 0.00 0.04 0.00 64 1011.2
20260506144317 70 169 5.0 4.0 0.00 0.04 0.00 64 1011.0
20260506143816 70 124 3.0 4.0 0.00 0.04 0.00 64 1011.1
20260506143317 70 180 3.0 4.0 0.00 0.04 0.00 64 1011.2
20260506142818 70 207 3.0 5.0 0.00 0.04 0.00 64 1011.2
20260506142317 70 181 3.0 4.0 0.00 0.04 0.00 64 1011.1
20260506141818 70 179 2.0 2.0 0.00 0.04 0.00 63 1011.2
20260506141320 70 190 3.0 3.0 0.00 0.04 0.00 63 1011.1
20260506140818 71 288 3.0 2.0 0.00 0.04 0.00 62 1011.0
20260506140319 71 173 4.0 3.0 0.00 0.04 0.00 61 1011.0
20260506135821 71 190 4.0 3.0 0.00 0.04 0.00 60 1011.2
20260506135319 71 143 4.0 3.0 0.00 0.04 0.00 60 1011.0
20260506134820 71 155 3.0 4.0 0.00 0.04 0.00 62 1011.1
20260506134322 71 166 3.0 2.0 0.00 0.04 0.00 62 1011.2
20260506133820 70 148 3.0 2.0 0.00 0.04 0.00 62 1011.3
20260506133322 70 197 3.0 2.0 0.00 0.04 0.00 62 1011.4
20260506132823 70 166 2.0 5.0 0.00 0.04 0.00 64 1011.4
20260506132321 69 160 3.0 2.0 0.00 0.04 0.00 65 1011.6
20260506131822 69 156 6.0 3.0 0.00 0.04 0.00 65 1011.7
20260506131324 69 153 3.0 1.0 0.00 0.04 0.00 66 1011.6
20260506130822 68 212 5.0 2.0 0.00 0.04 0.00 67 1011.6
20260506130323 68 167 3.0 5.0 0.00 0.04 0.00 68 1011.5
20260506125825 68 215 3.0 3.0 0.00 0.04 0.00 69 1011.5
20260506125323 67 153 2.0 2.0 0.00 0.04 0.00 69 1011.6
20260506124825 66 165 6.0 8.0 0.00 0.04 0.00 70 1011.5
20260506124326 66 186 3.0 3.0 0.00 0.04 0.00 70 1011.5
20260506123825 66 169 3.0 3.0 0.00 0.04 0.00 70 1011.3
20260506123326 66 145 2.0 4.0 0.00 0.04 0.00 71 1011.5
20260506122827 66 135 2.0 1.0 0.00 0.04 0.00 71 1011.5
20260506122326 65 153 4.0 7.0 0.00 0.04 0.00 72 1011.6
20260506121827 65 204 3.0 4.0 0.00 0.04 0.00 73 1011.5
20260506121328 65 125 3.0 2.0 0.00 0.04 0.00 74 1011.6
20260506120827 65 184 4.0 2.0 0.00 0.04 0.00 74 1011.6
20260506120328 65 236 3.0 2.0 0.00 0.04 0.00 74 1011.5
20260506115830 64 155 3.0 3.0 0.00 0.04 0.00 74 1011.5
20260506115328 64 188 4.0 5.0 0.00 0.04 0.00 76 1011.6
20260506114830 64 193 2.0 4.0 0.00 0.04 0.00 76 1011.7
20260506114331 63 229 3.0 3.0 0.00 0.04 0.00 78 1011.7
20260506113829 63 239 3.0 2.0 0.00 0.04 0.00 79 1011.7
20260506113331 63 204 3.0 4.0 0.00 0.04 0.00 79 1011.8
20260506112832 62 197 3.0 3.0 0.00 0.04 0.00 79 1011.8
20260506112331 62 339 4.0 5.0 0.00 0.04 0.00 80 1011.8
20260506111832 62 174 2.0 5.0 0.00 0.04 0.00 80 1011.8
20260506111334 62 176 3.0 5.0 0.00 0.04 0.00 81 1011.9
20260506110832 61 222 1.0 0.0 0.00 0.04 0.00 82 1011.8
20260506110334 61 146 2.0 3.0 0.00 0.04 0.00 82 1011.8
20260506105835 61 166 1.0 3.0 0.00 0.04 0.00 82 1011.7
20260506105333 61 162 3.0 5.0 0.00 0.04 0.00 83 1011.6
20260506104835 61 217 2.0 4.0 0.00 0.04 0.00 83 1011.6
20260506104336 61 229 2.0 2.0 0.00 0.04 0.00 83 1011.6
20260506103834 60 166 2.0 7.0 0.00 0.04 0.00 83 1011.7
20260506103336 60 184 1.0 3.0 0.00 0.04 0.00 83 1011.7
20260506102837 60 167 3.0 2.0 0.00 0.04 0.00 83 1011.6
20260506102336 60 160 1.0 0.0 0.00 0.04 0.00 83 1011.6
20260506101837 60 125 1.0 1.0 0.00 0.04 0.00 83 1011.5
20260506101338 60 160 1.0 2.0 0.00 0.04 0.00 83 1011.4
20260506100837 60 159 1.0 3.0 0.00 0.04 0.00 83 1011.4
20260506100338 60 152 1.0 5.0 0.00 0.04 0.00 83 1011.4
20260506095840 60 188 1.0 0.0 0.00 0.04 0.00 83 1011.4
20260506095338 60 129 3.0 3.0 0.00 0.04 0.00 83 1011.4
20260506094840 60 183 0.0 3.0 0.00 0.04 0.00 83 1011.3
20260506094341 60 232 2.0 0.0 0.00 0.04 0.00 84 1011.4
20260506093840 60 214 0.0 0.0 0.00 0.04 0.00 84 1011.4
20260506093342 60 214 0.0 0.0 0.00 0.04 0.00 84 1011.4
20260506092843 60 148 2.0 0.0 0.00 0.04 0.00 84 1011.4
20260506092342 60 152 2.0 1.0 0.00 0.04 0.00 84 1011.4
20260506091844 60 152 0.0 0.0 0.00 0.04 0.00 84 1011.5
20260506091344 60 177 3.0 3.0 0.00 0.04 0.00 84 1011.6
20260506090843 60 169 1.0 0.0 0.00 0.04 0.00 84 1011.6
20260506090345 60 176 0.0 5.0 0.00 0.04 0.00 83 1011.7
20260506085846 60 148 0.0 0.0 0.00 0.04 0.00 84 1011.8
20260506085345 60 180 2.0 4.0 0.00 0.04 0.00 83 1011.7
20260506084846 60 114 1.0 4.0 0.00 0.04 0.00 83 1011.8
20260506084347 60 176 3.0 3.0 0.00 0.04 0.00 83 1011.8
20260506083846 60 156 0.0 2.0 0.00 0.04 0.00 83 1011.8
20260506083347 61 180 0.0 0.0 0.00 0.04 0.00 83 1011.8
20260506082848 61 136 2.0 3.0 0.00 0.04 0.00 83 1011.8
20260506082347 61 44 3.0 2.0 0.00 0.04 0.00 82 1011.8
20260506081849 61 190 1.0 3.0 0.00 0.04 0.00 82 1011.8
20260506081350 61 156 2.0 2.0 0.00 0.04 0.00 82 1011.8
20260506080849 61 208 2.0 0.0 0.00 0.04 0.00 82 1011.8
20260506080350 61 150 0.0 3.0 0.00 0.04 0.00 82 1011.9
20260506073353 61 158 2.0 2.0 0.00 0.04 0.00 81 1012.0
20260506072854 61 184 0.0 3.0 0.00 0.04 0.00 80 1012.1
20260506072353 61 179 3.0 3.0 0.00 0.04 0.00 80 1012.1
20260506071854 61 156 0.0 0.0 0.00 0.04 0.00 80 1012.1
20260506071355 61 149 3.0 4.0 0.00 0.04 0.00 80 1012.2
20260506070854 61 204 3.0 0.0 0.00 0.04 0.00 80 1012.2
20260506070356 61 125 2.0 3.0 0.00 0.04 0.00 80 1012.1
20260506062359 62 150 2.0 3.0 0.00 0.04 0.00 78 1012.0
20260506061900 62 184 2.0 2.0 0.00 0.04 0.00 78 1012.0
20260506061402 62 138 3.0 2.0 0.00 0.04 0.00 78 1012.0
20260506060900 62 134 5.0 9.0 0.00 0.04 0.00 78 1012.0
20260506060402 62 187 4.0 5.0 0.00 0.04 0.00 78 1012.0
20260506051407 62 200 1.0 1.0 0.00 0.04 0.00 76 1012.4
20260506050906 62 195 2.0 3.0 0.00 0.04 0.00 76 1012.5
20260506050407 62 167 3.0 2.0 0.00 0.04 0.00 76 1012.6
20260506044909 62 183 3.0 6.0 0.00 0.04 0.00 75 1012.6
20260506044410 62 129 3.0 2.0 0.00 0.04 0.00 75 1012.6
20260506043909 63 187 3.0 2.0 0.00 0.04 0.00 74 1012.5
20260506043410 63 177 2.0 2.0 0.00 0.04 0.00 74 1012.5
20260506042912 63 319 0.0 0.0 0.00 0.04 0.00 73 1012.5
20260506042410 63 212 4.0 3.0 0.00 0.04 0.00 73 1012.5
20260506041911 63 190 3.0 3.0 0.00 0.04 0.00 73 1012.5
20260506041413 63 183 2.0 2.0 0.00 0.04 0.00 72 1012.5
20260506040911 63 174 3.0 4.0 0.00 0.04 0.00 72 1012.4
20260506040413 64 179 4.0 4.0 0.00 0.04 0.00 71 1012.6
20260506035914 64 200 3.0 3.0 0.00 0.04 0.00 71 1012.5
20260506035413 64 174 4.0 4.0 0.00 0.00 0.04 71 1012.5
20260506034914 64 166 4.0 3.0 0.00 0.00 0.04 70 1012.5
20260506034415 64 163 2.0 3.0 0.00 0.00 0.04 70 1012.5
20260506033914 64 104 3.0 4.0 0.00 0.00 0.04 70 1012.6
20260506033416 64 110 4.0 7.0 0.00 0.00 0.04 70 1012.6
20260506032917 64 148 5.0 7.0 0.00 0.00 0.04 69 1012.5
20260506032416 65 181 4.0 3.0 0.00 0.00 0.04 69 1012.4
20260506031917 65 205 4.0 4.0 0.00 0.00 0.04 69 1012.4
20260506031418 65 186 3.0 3.0 0.00 0.00 0.04 68 1012.5
20260506030917 65 184 4.0 7.0 0.00 0.00 0.04 68 1012.5
20260506030419 65 138 4.0 10.0 0.00 0.00 0.04 68 1012.5
20260506025920 65 165 3.0 5.0 0.00 0.00 0.04 68 1012.5
20260506025419 65 174 3.0 4.0 0.00 0.00 0.04 68 1012.5
20260506024920 65 187 4.0 2.0 0.00 0.00 0.04 67 1012.5
20260506024422 65 167 5.0 6.0 0.00 0.00 0.04 67 1012.6
20260506023920 65 163 5.0 5.0 0.00 0.00 0.04 67 1012.6
20260506023422 65 165 5.0 5.0 0.00 0.00 0.04 67 1012.7
20260506022923 66 173 5.0 5.0 0.00 0.00 0.04 66 1012.7
20260506022422 66 257 4.0 4.0 0.00 0.00 0.04 66 1012.6
20260506021923 66 188 3.0 2.0 0.00 0.00 0.04 66 1012.7
20260506021425 66 163 4.0 6.0 0.00 0.00 0.04 66 1012.7
20260506020923 66 242 5.0 4.0 0.00 0.00 0.04 66 1012.8
20260506020425 66 249 5.0 3.0 0.00 0.00 0.04 66 1012.7
20260506015926 66 228 5.0 4.0 0.00 0.00 0.04 66 1012.7
20260506015425 66 207 5.0 3.0 0.00 0.00 0.04 66 1012.7
20260506014926 66 203 3.0 2.0 0.00 0.00 0.04 66 1012.6
20260506014427 66 232 4.0 2.0 0.00 0.00 0.04 66 1012.6
20260506013926 66 191 4.0 5.0 0.00 0.00 0.04 66 1012.6
20260506013427 66 194 4.0 4.0 0.00 0.00 0.04 65 1012.5
20260506012929 66 172 7.0 6.0 0.00 0.00 0.04 65 1012.7
20260506012427 67 191 5.0 4.0 0.00 0.00 0.04 65 1012.6
20260506011929 67 180 4.0 4.0 0.00 0.00 0.04 65 1012.5
20260506011430 67 174 3.0 3.0 0.00 0.00 0.04 64 1012.4
20260506010929 67 156 5.0 3.0 0.00 0.00 0.04 64 1012.3
20260506010430 67 152 5.0 4.0 0.00 0.00 0.04 63 1012.3
20260506005932 67 181 4.0 2.0 0.00 0.00 0.04 62 1012.3
20260506005430 67 188 5.0 8.0 0.00 0.00 0.04 61 1012.4
20260506004931 67 153 5.0 5.0 0.00 0.00 0.04 61 1012.3
20260506004433 67 155 4.0 6.0 0.00 0.00 0.04 60 1012.3
20260506003931 67 152 5.0 7.0 0.00 0.00 0.04 60 1012.2
20260506003433 67 187 3.0 3.0 0.00 0.00 0.04 59 1012.2
20260506002934 67 143 4.0 4.0 0.00 0.00 0.04 59 1012.1
20260506002433 67 159 4.0 5.0 0.00 0.00 0.04 59 1012.0
20260506001934 67 203 7.0 7.0 0.00 0.00 0.04 59 1012.0
20260506001436 67 167 3.0 3.0 0.00 0.00 0.04 58 1012.0
20260506000934 68 188 4.0 5.0 0.00 0.00 0.04 58 1011.9
20260506000435 68 180 3.0 4.0 0.00 0.00 0.04 57 1011.9
20260505235937 68 181 3.0 4.0 0.00 0.00 0.04 57 1011.8
20260505235435 68 128 3.0 4.0 0.04 0.00 0.04 56 1011.7
20260505234937 68 221 4.0 3.0 0.04 0.00 0.04 56 1011.6
20260505234438 68 158 6.0 4.0 0.04 0.00 0.04 56 1011.7
20260505233937 69 163 4.0 7.0 0.04 0.00 0.04 56 1011.5
20260505233438 69 186 5.0 5.0 0.04 0.00 0.04 55 1011.6
20260505232939 69 174 5.0 2.0 0.04 0.00 0.04 55 1011.7
20260505232438 69 172 5.0 6.0 0.04 0.00 0.04 54 1011.5
20260505231939 70 177 5.0 6.0 0.04 0.00 0.04 53 1011.6
20260505231441 70 172 5.0 4.0 0.04 0.00 0.04 53 1011.5
20260505230939 70 204 5.0 5.0 0.04 0.00 0.04 53 1011.6
20260505230441 70 211 4.0 5.0 0.04 0.00 0.04 52 1011.5
20260505225942 70 0 5.0 4.0 0.04 0.00 0.04 52 1011.4
20260505225440 71 215 7.0 5.0 0.00 0.00 0.04 51 1011.4
20260505224942 71 208 4.0 4.0 0.00 0.00 0.04 51 1011.3
20260505224443 71 160 4.0 4.0 0.00 0.00 0.04 51 1011.1
20260505223942 71 212 5.0 2.0 0.00 0.00 0.04 50 1011.0
20260505223443 72 183 5.0 4.0 0.00 0.00 0.04 50 1011.0
20260505222944 72 135 6.0 10.0 0.00 0.00 0.04 49 1011.0
20260505222443 72 181 5.0 5.0 0.00 0.00 0.04 49 1010.9
20260505221944 72 215 2.0 3.0 0.00 0.00 0.04 49 1011.0
20260505221445 72 307 6.0 2.0 0.00 0.00 0.04 48 1010.8
20260505220944 73 174 3.0 4.0 0.00 0.00 0.04 49 1010.8